Regional Weather Roundup
Issued by NWS

Home | Current Version | Previous Version | Text Only | Print | Product List | Glossary Off
Versions: 1 2 3 4 5 6 7 8 9 10 11 12 13 14 15 16 17 18 19 20 21 22 23 24 25 26 27 28 29 30 31 32 33 34 35 36 37 38 39 40 41 42 43 44 45 46 47 48 49 50

000
ASUS43 KLSX 261807
RWRMO

WEATHER SUMMARY FOR MISSOURI
NATIONAL WEATHER SERVICE SPRINGFIELD MO
1200 PM CST THU FEB 26 2015

NOTE: "FAIR" INDICATES FEW OR NO CLOUDS BELOW 12,000 FEET WITH NO
       SIGNIFICANT WEATHER AND/OR OBSTRUCTIONS TO VISIBILITY.
       CURRENT SKY AND/OR WEATHER CONDITIONS ARE NOT AVAILABLE FOR
       CHILLICOTHE AND FARMINGTON.

MOZ001>031-035>038-043-044-053-054-261900-
...NORTHERN AND WESTERN MISSOURI...

CITY           SKY/WX    TMP DP  RH WIND       PRES   REMARKS
KANSAS CTY INT MOSUNNY   17   1  49 N16G25    30.43R WCI   2
6HR MIN TEMP:   7; 6HR MAX TEMP:  18;

KANSAS C DTWN  SUNNY     19   0  43 N14G24    30.45R WCI   6
6HR MIN TEMP:  10; 6HR MAX TEMP:  20;

LEE`S SUMMIT   SUNNY     18   1  47 N18G26    30.41S WCI   2
6HR MIN TEMP:  10; 6HR MAX TEMP:  18;

ST JOSEPH      SUNNY     15   0  51 N20G25    30.49R WCI  -2
6HR MIN TEMP:   6; 6HR MAX TEMP:  16;

CHILLICOTHE      N/A     15   0  51 N12G21    30.44R WCI   2
6HR MIN TEMP:   9; 6HR MAX TEMP:  16; 6HR PCP:  0.01;

KIRKSVILLE     SUNNY     15   0  51 NW17G26   30.37R WCI  -1
6HR MIN TEMP:   8; 6HR MAX TEMP:  15;


$$
MOZ066>068-077>081-088>096-101>105-261900-
...SOUTHWEST MISSOURI...

CITY           SKY/WX    TMP DP  RH WIND       PRES   REMARKS
SPRINGFIELD    MOSUNNY   23   9  55 NW18G25   30.29R WCI   9
6HR MIN TEMP:  17; 6HR MAX TEMP:  23; 6HR PCP: TRACE;

JOPLIN         SUNNY     24   6  46 N17G25    30.38S WCI  11
6HR MIN TEMP:  15; 6HR MAX TEMP:  24;


$$
MOZ032>034-039>042-045>050-055>058-069>072-261900-
...CENTRAL MISSOURI...

CITY           SKY/WX    TMP DP  RH WIND       PRES   REMARKS
COLUMBIA       MOSUNNY   21  11  65 N13       30.32R WCI   9
6HR MIN TEMP:  16; 6HR MAX TEMP:  22; 6HR PCP: TRACE;

JEFFERSON CITY CLOUDY    22   9  57 NW13      30.34R WCI  10
6HR MIN TEMP:  18; 6HR MAX TEMP:  22; 6HR PCP: TRACE;

ROLLA          FLURRIES  19  12  74 NW16      30.25R WCI   4
6HR MIN TEMP:  16; 6HR MAX TEMP:  19; 6HR PCP: TRACE;

SEDALIA        MOSUNNY   20   8  60 NW17G24   30.38S WCI   5
6HR MIN TEMP:  14; 6HR MAX TEMP:  20; 6HR PCP: TRACE;

WHITEMAN AFB   SUNNY     20   2  45 N20G25    30.38R WCI   4
WARRENSBURG    SUNNY     21   1  42 N17G23    30.41S WCI   7
OSAGE BEACH    CLOUDY    19   9  63 NW10G22   30.32R WCI   8

$$
MOZ051-052-059>065-261900-
...EAST CENTRAL MISSOURI...

CITY           SKY/WX    TMP DP  RH WIND       PRES   REMARKS
ST LOUIS INTL  LGT SNOW  22  14  71 NW14      30.26R WCI   9
6HR MIN TEMP:  20; 6HR MAX TEMP:  26; 6HR PCP:  0.02;

SPIRIT OF STL  LGT SNOW  22  14  71 N15       30.27R WCI   9
6HR MIN TEMP:  20; 6HR MAX TEMP:  24; 6HR PCP: TRACE;

ST CHARLES     LGT SNOW  22  14  71 NW15      30.27S WCI   9
6HR MIN TEMP:  19; 6HR MAX TEMP:  23; 6HR PCP: TRACE;


$$
MOZ072>076-082>087-097>100-106>115-261900-
...SOUTH CENTRAL AND SOUTHEAST MISSOURI...

CITY           SKY/WX    TMP DP  RH WIND       PRES   REMARKS
CAPE GIRARDEAU CLOUDY    27  23  85 NW18      30.17R WCI  14
6HR MIN TEMP:  23; 6HR MAX TEMP:  31;

FARMINGTON     CLOUDY    21  14  73 NW14G20   30.22R WCI   8
6HR MIN TEMP:  21; 6HR MAX TEMP:  28;

POPLAR BLUFF   CLOUDY    29  20  69 N18       30.18R WCI  16
6HR MIN TEMP:  26; 6HR MAX TEMP:  33;

WEST PLAINS    CLOUDY    23  13  65 NW14G23   30.23R WCI  11
6HR MIN TEMP:  21; 6HR MAX TEMP:  24; 6HR PCP: TRACE;


$$



USA.gov is the U.S. government's official web portal to all federal, state and local government web resources and services.